Regional Weather Roundup
Issued by NWS

Home | Current Version | Previous Version | Graphics & Text | Print | Product List | Glossary On
Versions: 1 2 3 4 5 6 7 8 9 10 11 12 13 14 15 16 17 18 19 20 21 22 23 24 25 26 27 28 29 30 31 32 33 34 35 36 37 38 39 40 41 42 43 44 45 46 47 48 49 50
000
ASUS45 KPSR 310900
RWRAZ

ARIZONA HOURLY REGIONAL WEATHER ROUNDUP
NATIONAL WEATHER SERVICE PHOENIX AZ
200 AM MST FRI JUL 31 2015

NOTE: FAIR INDICATES FEW OR NO CLOUDS BELOW 12,000 FEET WITH NO
SIGNIFICANT WEATHER AND/OR OBSTRUCTIONS TO VISIBILITY.

AZZ001>003-036-311000-
NORTHWEST ARIZONA

CITY           SKY/WX    TMP DP  RH WIND       PRES   REMARKS
KINGMAN        PTCLDY    72  52  49 SE7       30.11F
$$

AZZ004>008-015-016-018-311000-
NORTH CENTRAL ARIZONA

CITY           SKY/WX    TMP DP  RH WIND       PRES   REMARKS
GRAND CANYON   MOCLDY    64  50  60 NE5       30.39F
WILLIAMS       CLOUDY    64  52  63 S6        30.45F
PRESCOTT       PTCLDY    66  56  70 S3        30.24F
FLAGSTAFF      NOT AVBL
PAYSON         PTCLDY    68  55  64 CALM      30.27F HAZE
PAGE           MOCLDY    81  53  37 S15G21    30.21R
$$

AZZ009>014-017-311000-
NORTHEAST ARIZONA

CITY           SKY/WX    TMP DP  RH WIND       PRES   REMARKS
WINSLOW        NOT AVBL
SAINT JOHNS    CLEAR     62  59  90 CALM      30.31F
SHOW LOW       CLEAR     54  54 100 CALM      30.37F
$$

AZZ023-311000-
GREATER PHOENIX AREA

CITY           SKY/WX    TMP DP  RH WIND       PRES   REMARKS
PHOENIX        CLOUDY    95  59  30 W9        29.91S
LUKE AFB       MOCLDY    90  63  40 S7        29.90F
DEER VALLEY    MOCLDY    90  57  32 N6        29.93F
SCOTTSDALE     MOCLDY    89  62  40 S6        29.94F
$$

AZZ027-028-311000-
SOUTHWEST MARICOPA COUNTY AND PINAL COUNTY

CITY           SKY/WX    TMP DP  RH WIND       PRES   REMARKS
CASA GRANDE    MOCLDY    90  57  33 CALM      29.94S
GILA BEND      FAIR      90  60  37 SW3       29.91F
$$

AZZ503-504-507>509-311000-
SOUTHEAST ARIZONA

CITY           SKY/WX    TMP DP  RH WIND       PRES   REMARKS
TUCSON         MOCLDY    83  67  58 SW3       30.06F
DAVIS-MONTHAN  PTCLDY    82  66  58 SE6       30.05F
NOGALES        CLOUDY    73  64  73 S7        30.16F
SIERRA VISTA   LGT RAIN  74  58  57 S8        30.23F
SAFFORD        PTCLDY    83  58  42 E8        30.08F
$$

AZZ020-021-025-026-031-311000-
SOUTHWEST ARIZONA

CITY           SKY/WX    TMP DP  RH WIND       PRES   REMARKS
YUMA           NOT AVBL
$$

CAZ031-033-041-043-047-048-061-311000-
SOUTHERN CALIFORNIA

CITY           SKY/WX    TMP DP  RH WIND       PRES   REMARKS
DOWNTOWN L.A.  CLEAR     70  64  81 CALM      30.00F
L.A. AIRPORT   PTCLDY    69  66  90 SW6       30.01F
SAN DIEGO      CLOUDY    71  64  78 NW3       30.03F
BURBANK        CLEAR     74  63  68 CALM      30.01F
ONTARIO        CLEAR     71  64  78 W5        30.02S
RIVERSIDE      CLEAR     73  65  75 CALM      30.02F
PALM SPRINGS   CLEAR     88  66  48 CALM      29.92F
EL CENTRO NAS  CLEAR     86  68  54 W6        29.87F
IMPERIAL       CLEAR     85  67  54 W7        29.85F
$$

NVZ020-UTZ003-311000-
SOUTHERN NEVADA-UTAH

CITY           SKY/WX    TMP DP  RH WIND       PRES   REMARKS
LAS VEGAS      NOT AVBL
SALT LAKE CITY PTCLDY    66  37  34 S6        30.21F
$$

NMZ009-TXZ055-311000-
NEW MEXICO-WEST TEXAS

CITY           SKY/WX    TMP DP  RH WIND       PRES   REMARKS
ALBUQUERQUE    CLOUDY    69  61  75 N8        30.34F
EL PASO        CLOUDY    75  66  73 CALM      30.23R
$$


........................KEY........................
SKY/WX - SKY CONDITION/WEATHER
TMP    - TEMPERATURE IN FAHRENHEIT
DP     - DEW POINT IN FAHRENHEIT
RH     - RELATIVE HUMIDITY IN PERCENT
WIND   - DIRECTION AND SPEED IN MILES PER HOUR (MPH)
VRB    - VARIABLE WIND DIRECTION
PRES   - MEAN SEA LEVEL PRESSURE IN INCHES OF MERCURY
         F - FALLING PRESSURE   R - RISING PRESSURE
         S - STEADY PRESSURE
VSB    - VISIBILITY IN MILES
HX     - HEAT INDEX IN FAHRENHEIT
WCI    - WIND CHILL INDEX IN FAHRENHEIT
TC     - TEMPERATURE IN CELSIUS WHICH IS ALSO KNOWN AS
         TEMPERATURE IN CENTIGRADE
AFB    - AIR FORCE BASE
         LUKE AFB IS LUKE AIR FORCE BASE
         DAVIS-MONTHAN IS DAVIS-MONTHAN AIR FORCE BASE
NAS    - NAVAL AIR STATION
         EL CENTRO NAS IS EL CENTRO NAVAL AIR STATION
N/A    - NOT AVAILABLE




USA.gov is the U.S. government's official web portal to all federal, state and local government web resources and services.